Home   Weather   Worcester   Past weeks
Flag for United Kingdom

Past Weather in Worcester, England, United Kingdom — Yesterday and Last 2 Weeks

Now
55 °F

Passing clouds.


Feels Like: 54 °F
Forecast: 55 / 42 °F
Wind: 6 mph from Southwest

Location: Staverton Private

Current Time: Oct 22, 2019 at 12:17:20 pm

Latest Report: Oct 22, 2019 at 11:20 am


Visibility: N/A

Pressure: 30.21 "Hg

Humidity: 72%

Dew Point: 46 °F

Location of WorcesterLocation

Past Weather in Worcester — Graph

°F

Worcester Temperature Yesterday

Maximum temperature yesterday: 55 °F (at 12:50 pm)
Minimum temperature yesterday: 48 °F (at 7:50 am)
Average temperature yesterday: 53 °F

High & Low Weather Summary for the Past Weeks

 TemperatureHumidityPressure
High63 °F (Oct 11, 11:20 am)100% (Oct 11, 3:20 pm)30.24 "Hg (Oct 11, 3:20 pm)
Low45 °F (Oct 22, 8:20 am)59% (Oct 9, 2:50 pm)29.42 "Hg (Oct 18, 4:20 pm)
Average56 °F84%29.71 "Hg
* Reported Oct 7 10:20 am — Oct 22 10:20 am, Worcester. Weather by CustomWeather, © 2019

Note: Actual official high and low records may vary slightly from our data, if they occured in-between our weather recording intervals... More about our weather records

Advertising

Worcester Weather History for the Previous 24 Hours

Scroll right to see more
 ConditionsComfort  
Time TempWeatherWind HumidityBarometerVisibility
10:20 am
Tue, Oct 22
55 °FSunny.6 mph77%30.24 "Hg10 mi
9:50 am52 °FPassing clouds.No wind88%30.24 "HgN/A
9:20 am46 °FPassing clouds.No wind100%30.24 "HgN/A
8:50 am45 °FPassing clouds.No wind100%30.21 "HgN/A
8:20 am45 °FPassing clouds.3 mph100%30.21 "HgN/A
6:50 pm
Mon, Oct 21
52 °FPassing clouds.2 mph88%30.18 "HgN/A
6:20 pm52 °FPassing clouds.2 mph82%30.18 "HgN/A
5:50 pm52 °FPassing clouds.3 mph82%30.15 "HgN/A
5:20 pm54 °FPartly sunny.6 mph77%30.15 "HgN/A
4:50 pm54 °FPartly sunny.6 mph82%30.15 "HgN/A
4:20 pm54 °FScattered clouds.6 mph82%30.15 "HgN/A
3:50 pm55 °FScattered clouds.7 mph77%30.15 "HgN/A
3:20 pm55 °FScattered clouds.7 mph77%30.15 "HgN/A
2:50 pm54 °FScattered clouds.8 mph82%30.15 "HgN/A
2:20 pm55 °FScattered clouds.8 mph77%30.15 "HgN/A
1:50 pm55 °FScattered clouds.10 mph77%30.15 "HgN/A
1:20 pm55 °FScattered clouds.7 mph77%30.15 "HgN/A
12:50 pm55 °FScattered clouds.7 mph82%30.15 "HgN/A
12:20 pm54 °FScattered clouds.8 mph88%30.15 "HgN/A
Weather by CustomWeather, © 2019

See weather overview